Location: Guilderland
(42.7045°N, 73.9115°W)
Time: 18:03:21
(UTC+00:00)

Cosmos 44 - Pass Details

Date: 24 January 2020
Orbit: 595 x 767 km, 65.1° (Epoch: 23 February)

Event Time Altitude Azimuth Distance (km) Brightness Sun altitude
Rises 23:11:57 0° 217° (SW) 2,967 7.4 -13.6°
Reaches altitude 10° 23:14:18 10° 220° (SW) 2,033 6.5 -14.0°
Maximum altitude 23:18:52 71° 305° (NW) 660 3.3 -14.8°
Enters shadow 23:22:38 14° 28° (NNE) 1,707 4.9 -15.5°
